Regional Weather Roundup
Issued by NWS

Home | Current Version | Previous Version | Text Only | Print | Product List | Glossary Off
Versions: 1 2 3 4 5 6 7 8 9 10 11 12 13 14 15 16 17 18 19 20 21 22 23 24 25 26 27 28 29 30 31 32 33 34 35 36 37 38 39 40 41 42 43 44 45 46 47 48 49 50

000
ASUS43 KLOT 202209
RWRIL

ILLINOIS REGIONAL WEATHER ROUNDUP
NATIONAL WEATHER SERVICE CHICAGO/ROMEOVILLE IL
500 PM CDT SUN MAY 20 2018

NOTE: "FAIR" INDICATES FEW OR NO CLOUDS BELOW 12,000 FEET WITH NO
SIGNIFICANT WEATHER AND/OR OBSTRUCTIONS TO VISIBILITY.

* THESE STATIONS ARE NOT UNDER NWS QUALITY CONTROL. THEY ALSO MAY NOT
  REPORT WEATHER SUCH AS PRECIPITATION OR FOG.

ILZ001-002-007-009-015-016-024-202300-
NORTHWEST ILLINOIS

CITY           SKY/WX    TMP DP  RH WIND       PRES   REMARKS
MOLINE         CLOUDY    64  55  72 NE13      30.09R
SAVANNA*       CLOUDY    60  54  80 NE15      30.11F
$$

ILZ003-004-008-010-011-017-018-202300-
NORTH CENTRAL ILLINOIS

CITY           SKY/WX    TMP DP  RH WIND       PRES   REMARKS
ROCKFORD       CLOUDY    57  51  80 NE14      30.16F
FREEPORT*      CLOUDY    57  53  86 NE13      30.16F
ROCHELLE*      CLOUDY    58  54  89 NE15      30.14F
DE KALB*       CLOUDY    57  53  88 E13       30.15F
PERU*          FAIR      67  55  64 NE16G25   30.09F
$$

ILZ005-006-012>014-019>023-202300-
NORTHEAST ILLINOIS

CITY           SKY/WX    TMP DP  RH WIND       PRES   REMARKS
CHICAGO-OHARE  CLOUDY    49  42  77 N15       30.16F
CHICAGO-MIDWAY CLOUDY    51  44  77 NE13      30.17F
AURORA         FAIR      60  51  72 NE18      30.13F
LANSING*       CLOUDY    47  47  97 NE10      30.17F
JOLIET*        FAIR      60  52  74 NE15      30.12F
WAUKEGAN       CLOUDY    48  41  76 N13       30.19F
DUPAGE AIRPORT CLOUDY    55  50  83 NE12G18   30.15F
KANKAKEE*      FAIR      63  55  73 E16       30.09F
WHEELING       CLOUDY    50  42  74 N14       30.20F
MORRIS*        FAIR      63  52  67 NE9G23    30.08F
ROMEOVILLE*    FAIR      55  48  77 NE13      30.14F
NORTHERLY ISL    N/A     45  41  86 N13         N/A
$$

LMZ740>746-202300-
SOUTHERN LAKE MICHIGAN

STATION/POSITION SKY/WX   TEMP    WIND        PRES    VSBY  WAVE
                          AIR SEA DIR/SP/G                  HT/PER
                          (F)     (DEG/KT/KT) (MB)    (MI)  (FT/S)
WILMETTE HARBOR            42 47  360/ 14/ 19   N/A           4/ 6
HARRISON CRIB              43      10/ 16/ 17   N/A
BURNHAM HARBOR             45     360/  9/ 15   N/A
CALUMET HARBOR             44     350/  9/ 15 1021.4F
BURNS HARBOR               45      30/ 14/ 16 1022.0F
MICHIGAN CITY              45     360/ 17/ 20   N/A
MICHIGAN CITY 6N           45 52   40/ 14/ 16   N/A           4/ 6
ST. JOSEPH                 49 53   40/ 10/ 14 1022.5          4/ 6
$$

ILZ025>027-034>036-040-047-049-050-058-095>099-202300-
WEST-CENTRAL ILLINOIS

CITY           SKY/WX    TMP DP  RH WIND       PRES   REMARKS
QUINCY         CLOUDY    77  63  61 CALM      30.05F
GALESBURG*     DRIZZLE   65  56  73 NE6       30.10R
MACOMB*        CLOUDY    74  64  70 NE9       30.08R
JACKSONVILLE*  CLOUDY    78  62  57 SE6       30.05R HX  80
PITTSFIELD*    CLOUDY    77  67  70 N3        30.07S
$$

ILZ028>032-037-038-041>044-048-051>054-059>061-202300-
CENTRAL ILLINOIS

CITY           SKY/WX    TMP DP  RH WIND       PRES   REMARKS
PONTIAC        FAIR      71  57  60 NE16      30.09R
BLOOMINGTON    FAIR      71  54  54 NE15      30.10R
DECATUR        FAIR      81  62  52 E9        30.05R HX  82
PEORIA         FAIR      71  55  56 E14       30.06S
LACON*         FAIR      66  56  69 E10G17    30.07S
LINCOLN*       FAIR      82  64  53 E6        30.04S HX  83
SPRINGFIELD    FAIR      80  63  55 E8        30.05S HX  81
TAYLORVILLE    FAIR      78  67  68 E7        30.06R HX  80
$$

ILZ033-039-045-046-055>057-062-063-202300-
EAST-CENTRAL ILLINOIS

CITY           SKY/WX    TMP DP  RH WIND       PRES   REMARKS
CHAMPAIGN      FAIR      75  63  66 E13       30.07S
DANVILLE*      FAIR      71  65  80 E6        30.06R HAZE
RANTOUL*       FAIR      73  61  67 NE12      30.09S
MATTOON        FAIR      81  66  60 E5        30.05S HX  83
PARIS*         FAIR      79  66  65 CALM      30.07S HX  81
$$

ILZ079-100>102-202300-
SOUTHWEST ILLINOIS

CITY           SKY/WX    TMP DP  RH WIND       PRES   REMARKS
ALTON          PTSUNNY   79  68  69 E13       30.05F HX  81
BELLEVILLE     MOSUNNY   80  67  64 SE6       30.04S HX  82
CAHOKIA*       MOSUNNY   80  66  62 E6        30.04F HX  82
$$

ILZ064>066-069>071-074>076-080>082-084>086-088>090-092>094-202300-
SOUTH-CENTRAL ILLINOIS

CITY           SKY/WX    TMP DP  RH WIND       PRES   REMARKS
CARBONDALE     FAIR      69  67  93 SE5       30.06S
CAIRO*         FAIR      70  67  92 NE6       30.05F
EFFINGHAM*     FAIR      83  66  56 NE3       30.07S HX  85
MARION         CLOUDY    68  66  94 SE8       30.07F
CENTRALIA*     CLOUDY    83  69  64 E5        30.05S HX  86
SALEM*         FAIR      83  66  56 E3        30.05F HX  85
$$

ILZ067-068-072-073-078-083-087-091-202300-
SOUTHEAST ILLINOIS

CITY           SKY/WX    TMP DP  RH WIND       PRES   REMARKS
LAWRENCEVILLE  FAIR      84  66  54 N7        30.05F HX  86
FLORA*         FAIR      82  67  59 E6        30.05F HX  84
FAIRFIELD*     FAIR      78  67  68 CALM      30.04F HX  80
HARRISBURG*    RAIN      68  65  91 SE6       30.05F
ROBINSON*      FAIR      80  67  63 CALM      30.07F HX  82
CARMI*         TSTM      76  71  85 S5        30.05S
$$

ABBREVIATIONS USED IN REMARKS
   TC - TEMPERATURE IN CELSIUS
  WCI - WIND CHILL INDEX
   HX - HEAT INDEX
  VSB - VISIBILITY
$$





USA.gov is the U.S. government's official web portal to all federal, state and local government web resources and services.